TimePDT,TemperatureF,Dew PointF,Humidity,Sea Level PressureIn,VisibilityMPH,Wind Direction,Wind SpeedMPH,Gust SpeedMPH,PrecipitationIn,Events,Conditions,WindDirDegrees,DateUTC
12:15 AM,26.6,17.6,69,30.38,8.0,Calm,Calm,-,N/A,,Clear,0,2013-03-11 07:15:00
12:35 AM,26.6,17.6,69,30.39,10.0,Calm,Calm,-,N/A,,Clear,0,2013-03-11 07:35:00
12:55 AM,24.8,17.6,74,30.39,10.0,Calm,Calm,-,N/A,,Clear,0,2013-03-11 07:55:00
1:15 AM,24.8,17.6,74,30.39,10.0,Calm,Calm,-,N/A,,Clear,0,2013-03-11 08:15:00
1:35 AM,24.8,17.6,74,30.39,10.0,Calm,Calm,-,N/A,,Clear,0,2013-03-11 08:35:00
1:55 AM,23.0,17.6,80,30.39,10.0,Calm,Calm,-,N/A,,Clear,0,2013-03-11 08:55:00
2:15 AM,24.8,15.8,69,30.38,10.0,Calm,Calm,-,N/A,,Clear,0,2013-03-11 09:15:00
2:35 AM,23.0,17.6,80,30.38,10.0,Calm,Calm,-,N/A,,Clear,0,2013-03-11 09:35:00
2:55 AM,21.2,17.6,86,30.37,10.0,ESE,3.5,-,N/A,,Clear,120,2013-03-11 09:55:00
3:15 AM,21.2,17.6,86,30.36,7.0,Calm,Calm,-,N/A,,Clear,0,2013-03-11 10:15:00
3:35 AM,23.0,15.8,74,30.36,10.0,Calm,Calm,-,N/A,,Clear,0,2013-03-11 10:35:00
3:55 AM,24.8,15.8,69,30.35,10.0,Calm,Calm,-,N/A,,Clear,0,2013-03-11 10:55:00
4:15 AM,23.0,15.8,74,30.35,10.0,Calm,Calm,-,N/A,,Clear,0,2013-03-11 11:15:00
4:35 AM,21.2,15.8,80,30.35,10.0,Calm,Calm,-,N/A,,Clear,0,2013-03-11 11:35:00
4:55 AM,21.2,15.8,80,30.36,10.0,Calm,Calm,-,N/A,,Clear,0,2013-03-11 11:55:00
5:15 AM,21.2,15.8,80,30.37,10.0,Calm,Calm,-,N/A,,Clear,0,2013-03-11 12:15:00
5:35 AM,19.4,15.8,86,30.37,10.0,Calm,Calm,-,N/A,,Clear,0,2013-03-11 12:35:00
5:55 AM,19.4,15.8,86,30.37,5.0,WSW,3.5,-,N/A,,Clear,250,2013-03-11 12:55:00
6:15 AM,23.0,15.8,74,30.37,10.0,Calm,Calm,-,N/A,,Clear,0,2013-03-11 13:15:00
6:35 AM,17.6,15.8,93,30.37,10.0,Calm,Calm,-,N/A,,Clear,0,2013-03-11 13:35:00
6:55 AM,19.4,15.8,86,30.37,10.0,Calm,Calm,-,N/A,,Scattered Clouds,0,2013-03-11 13:55:00
7:50 AM,19.4,15.8,86,30.38,10.0,Calm,Calm,-,N/A,,Scattered Clouds,0,2013-03-11 14:50:00
8:45 AM,24.8,17.6,74,30.38,10.0,Calm,Calm,-,N/A,,Scattered Clouds,0,2013-03-11 15:45:00
9:45 AM,32.0,21.2,64,30.38,10.0,Calm,Calm,-,N/A,,Scattered Clouds,0,2013-03-11 16:45:00
10:45 AM,37.4,17.6,45,30.36,10.0,Calm,Calm,-,N/A,,Scattered Clouds,0,2013-03-11 17:45:00
11:55 AM,46.4,17.6,32,30.32,10.0,Calm,Calm,-,N/A,,Scattered Clouds,0,2013-03-11 18:55:00
12:45 PM,50.0,19.4,30,30.31,10.0,NE,5.8,-,N/A,,Scattered Clouds,40,2013-03-11 19:45:00
1:55 PM,55.4,19.4,25,30.27,10.0,North,8.1,-,N/A,,Scattered Clouds,360,2013-03-11 20:55:00
2:45 PM,57.2,21.2,25,30.26,10.0,NNW,4.6,-,N/A,,Scattered Clouds,340,2013-03-11 21:45:00
3:45 PM,57.2,19.4,23,30.25,10.0,NW,4.6,-,N/A,,Scattered Clouds,310,2013-03-11 22:45:00
4:45 PM,57.2,19.4,23,30.23,10.0,North,5.8,-,N/A,,Scattered Clouds,360,2013-03-11 23:45:00
5:50 PM,57.2,21.2,25,30.23,10.0,NNE,6.9,-,N/A,,Scattered Clouds,20,2013-03-12 00:50:00
5:55 PM,57.2,21.2,25,30.23,10.0,NNE,6.9,-,N/A,,Clear,20,2013-03-12 00:55:00
6:15 PM,55.4,24.8,31,30.23,10.0,NNE,5.8,-,N/A,,Clear,20,2013-03-12 01:15:00
6:35 PM,53.6,23.0,30,30.24,10.0,NNW,4.6,-,N/A,,Clear,340,2013-03-12 01:35:00
6:55 PM,53.6,23.0,30,30.23,10.0,NNW,4.6,-,N/A,,Clear,340,2013-03-12 01:55:00
7:15 PM,51.8,24.8,35,30.24,10.0,Calm,Calm,-,N/A,,Clear,0,2013-03-12 02:15:00
7:35 PM,41.0,26.6,57,30.24,10.0,South,4.6,-,N/A,,Clear,170,2013-03-12 02:35:00
7:55 PM,39.2,26.6,61,30.24,10.0,SE,4.6,-,N/A,,Clear,140,2013-03-12 02:55:00
8:15 PM,37.4,28.4,70,30.25,10.0,SSE,5.8,-,N/A,,Clear,150,2013-03-12 03:15:00
8:35 PM,39.2,28.4,65,30.25,10.0,SSE,3.5,-,N/A,,Clear,150,2013-03-12 03:35:00
8:55 PM,37.4,28.4,70,30.26,10.0,SSE,3.5,-,N/A,,Clear,150,2013-03-12 03:55:00
9:15 PM,35.6,28.4,75,30.27,10.0,Calm,Calm,-,N/A,,Clear,0,2013-03-12 04:15:00
9:35 PM,35.6,28.4,75,30.27,10.0,SW,3.5,-,N/A,,Clear,220,2013-03-12 04:35:00
9:55 PM,35.6,28.4,75,30.28,10.0,Calm,Calm,-,N/A,,Clear,0,2013-03-12 04:55:00
10:15 PM,32.0,28.4,87,30.28,10.0,Calm,Calm,-,N/A,,Clear,0,2013-03-12 05:15:00
10:35 PM,32.0,26.6,80,30.29,10.0,Calm,Calm,-,N/A,,Clear,0,2013-03-12 05:35:00
10:55 PM,32.0,26.6,80,30.29,10.0,Calm,Calm,-,N/A,,Clear,0,2013-03-12 05:55:00
11:15 PM,32.0,26.6,80,30.29,10.0,Calm,Calm,-,N/A,,Clear,0,2013-03-12 06:15:00
11:35 PM,32.0,26.6,80,30.29,10.0,SSE,3.5,-,N/A,,Clear,160,2013-03-12 06:35:00
11:55 PM,28.4,26.6,93,30.29,10.0,Calm,Calm,-,N/A,,Clear,0,2013-03-12 06:55:00